星链-31512 (STARLINK-31512 )

导读 | 豆包AI

STARLINK-31512是美国太空探索技术公司星链计划的卫星,于2024年4月13日发射入轨,属于星链卫星互联网星座组网卫星。星链系统旨在为全球提供覆盖偏远地区、高性价比的宽带互联网服务,该卫星加入后进一步扩充了星链低轨星座的规模,提升星座服务覆盖能力与容量。

基本信息
目录编号:
59500
目录名称:
STARLINK-31512
国际标识:
2024-071S
轨道中心:
EARTH
卫星名称:
星链-31512
卫星全名:
星链-31512 (STARLINK-31512 )
卫星状态:
在轨 (已飞行747 天)
发射日期:
2024-04-13 UTC
国别 :
美国 (US)
星等 :
--
轨道信息
数据来源 国际轨道数据 AOE轨道数据
星历时间 2026-04-30T00:58:03+0800
7小时前
查看轨道信息
2026-04-29T17:00:00+0800
15小时前
查看轨道信息
半长轴 6861.163km 6861.225km
偏心率 0.0001461 0.0000186
轨道倾角 43.000° 43.002°
近地点辐角 270.731° 311.994°
升交点赤经 11.476° 13.351°
平近点角 89.338° 20.423°
近地点 482.023km 482.96km
远地点 484.029km 483.216km
周期 94.266分钟 94.268分钟
每日圈数 15.275879 15.275671
详细信息
固有亮度:
5
最大亮度:
1.5
卫星平台:
Starlink v2.0 mini
覆盖范围:
全球
运营商:
太空探索技术公司
运营商所在国:
美国
制造商(研发单位):
太空探索技术公司
制造商所在国:
美国
使用方式:
暂无
卫星简介
星链(Starlink)计划是由太空探索技术公司(SpaceX)提出的一个巨型低轨卫星互联网星座项目,计划在2019年至2024年间在太空搭建由约1.2万颗卫星组成的“星链”网络,其中1584颗将部署在地球上空550千米处的近地轨道,并从2020年开始工作。该卫星仍在工作。
2D轨道图
3D轨道图
轨道高度分析图
轨道倾角分析图
轨道综合分析图
查看轨道综合分析图